Orbital Elements at Epoch 2459000.5 (2020-May-31.0) TDB
Reference: JPL 15 (heliocentric ecliptic J2000)
Element | Value | Uncertainty (1-sigma) | Units |
e | .1631328682780823 | 5.2981e-08 | |
a | 2.344747070538434 | 1.2168e-08 | au |
q | 1.962241755534868 | 1.1998e-07 | au |
i | 2.464429852243727 | 5.3424e-06 | deg |
node | 20.33855499663231 | 0.00010232 | deg |
peri | 201.4460905685668 | 0.0001034 | deg |
M | 111.478602318096 | 1.393e-05 | deg |
tp | 2458594.401445114769 (2019-Apr-20.90144511) | 5.0558e-05 | TDB |
period | 1311.421893696918 3.59 | 1.0209e-05 2.795e-08 | d yr |
n | .2745112017194975 | 2.1369e-09 | deg/d |
Q | 2.727252385542 | 1.4153e-08 | au |
|
| | Orbit Determination Parameters
Additional Information
|